Location: Limerick
(52.6650°N, 8.6230°W)
Time: 17:10:49
(UTC+00:00)

Envisat - Visible Passes

Search period start: 20 November 2017 00:00
Search period end: 30 November 2017 00:00
Orbit: 764 x 766 km, 98.2° (Epoch: 20 November)

Date Brightness Start Highest point End Pass type
(mag) Time Alt. Az. Time Alt. Az. Time Alt. Az.
20 Nov 4.7 18:12:49 15° NE 18:12:49 15° NE 18:14:43 10° NNE visible
20 Nov 4.6 19:53:02 25° N 19:53:02 25° N 19:55:08 10° NNW visible
20 Nov 6.0 21:33:14 11° NW 21:33:14 11° NW 21:33:23 10° NW visible
21 Nov 4.5 19:15:58 23° NNE 19:15:58 23° NNE 19:18:11 10° N visible
21 Nov 5.5 20:56:11 16° NW 20:56:11 16° NW 20:57:17 10° NNW visible
22 Nov 4.6 18:38:55 18° NNE 18:38:55 18° NNE 18:40:57 10° N visible
22 Nov 5.0 20:19:07 21° NNW 20:19:07 21° NNW 20:20:46 10° NNW visible
23 Nov 4.8 18:01:51 12° NE 18:01:51 12° NE 18:03:10 10° NNE visible
23 Nov 4.6 19:42:03 23° N 19:42:03 23° N 19:43:58 10° N visible
23 Nov 5.9 21:22:16 11° NW 21:22:16 11° NW 21:22:31 10° NW visible
24 Nov 4.6 19:04:59 21° NNE 19:04:59 21° NNE 19:06:56 10° N visible
24 Nov 5.4 20:45:12 16° NNW 20:45:12 16° NNW 20:46:16 10° NNW visible
25 Nov 4.7 18:27:55 16° NNE 18:27:55 16° NNE 18:29:36 10° N visible
25 Nov 5.0 20:08:07 20° NNW 20:08:07 20° NNW 20:09:39 10° NNW visible
26 Nov 5.0 17:50:50 11° NE 17:50:50 11° NE 17:51:21 10° NNE visible
26 Nov 4.7 19:31:02 21° N 19:31:02 21° N 19:32:47 10° N visible
26 Nov 5.8 21:11:15 12° NW 21:11:15 12° NW 21:11:35 10° NNW visible
27 Nov 6.2 07:28:36 10° ENE 07:29:32 10° E 07:30:29 10° E visible
27 Nov 4.7 18:53:57 18° NNE 18:53:57 18° NNE 18:55:41 10° N visible
27 Nov 5.4 20:34:10 16° NNW 20:34:10 16° NNW 20:35:12 10° NNW visible
28 Nov 4.8 18:16:53 14° NNE 18:16:53 14° NNE 18:18:12 10° NNE visible
28 Nov 5.0 19:57:05 19° N 19:57:05 19° N 19:58:31 10° NNW visible
29 Nov 4.8 19:20:00 19° N 19:20:00 19° N 19:21:35 10° N visible
29 Nov 5.8 21:00:12 12° NNW 21:00:12 12° NNW 21:00:37 10° NNW visible
